| time (UTC) | temp C | wind direction | speed KPH | gust KPH | rain 1hr cm | rain 24hr cm | rain mn cm | humidity % | barometer mb |
| 20260503050036 | 18 | 334 | 3.2 | 17.7 | 0.00 | 0.00 | 0.00 | 36 | 1012.8 |
| 20260503044537 | 18 | 269 | 4.8 | 17.7 | 0.00 | 0.00 | 0.00 | 33 | 1012.8 |
| 20260503043047 | 19 | 352 | 3.2 | 19.3 | 0.00 | 0.00 | 0.00 | 32 | 1012.7 |
| 20260503041538 | 19 | 0 | 0.0 | 9.7 | 0.00 | 0.00 | 0.00 | 31 | 1012.8 |
| 20260503040052 | 20 | 315 | 1.6 | 14.5 | 0.00 | 0.00 | 0.00 | 32 | 1012.8 |
| 20260503034538 | 20 | 0 | 0.0 | 9.7 | 0.00 | 0.00 | 0.00 | 30 | 1012.6 |
| 20260503033036 | 20 | 324 | 3.2 | 9.7 | 0.00 | 0.00 | 0.00 | 29 | 1012.0 |
| 20260503031537 | 20 | 154 | 3.2 | 12.9 | 0.00 | 0.00 | 0.00 | 27 | 1011.6 |
| 20260503030037 | 20 | 347 | 6.4 | 14.5 | 0.00 | 0.00 | 0.00 | 26 | 1011.2 |
| 20260503024538 | 20 | 355 | 6.4 | 12.9 | 0.00 | 0.00 | 0.00 | 28 | 1011.0 |
| 20260503023038 | 20 | 326 | 3.2 | 12.9 | 0.00 | 0.00 | 0.00 | 30 | 1011.0 |
| 20260503021550 | 20 | 334 | 4.8 | 12.9 | 0.00 | 0.00 | 0.00 | 31 | 1011.1 |
| 20260503020042 | 20 | 297 | 4.8 | 14.5 | 0.00 | 0.00 | 0.00 | 30 | 1011.1 |
| 20260503014537 | 20 | 0 | 1.6 | 9.7 | 0.00 | 0.00 | 0.00 | 29 | 1011.2 |
| 20260503013102 | 21 | 320 | 1.6 | 14.5 | 0.00 | 0.00 | 0.00 | 30 | 1011.2 |
| 20260503004608 | 21 | 328 | 1.6 | 6.4 | 0.00 | 0.00 | 0.00 | 26 | 1011.0 |
| 20260503003051 | 22 | 0 | 0.0 | 1.6 | 0.00 | 0.00 | 0.00 | 27 | 1011.2 |
| 20260503000040 | 22 | 0 | 0.0 | 8.0 | 0.00 | 0.00 | 0.00 | 24 | 1011.1 |
| 20260502234538 | 23 | 127 | 3.2 | 11.3 | 0.00 | 0.00 | 0.00 | 24 | 1011.2 |
| 20260502233037 | 23 | 0 | 1.6 | 6.4 | 0.00 | 0.00 | 0.00 | 23 | 1011.3 |
| 20260502231536 | 23 | 0 | 0.0 | 14.5 | 0.00 | 0.00 | 0.00 | 21 | 1011.3 |
| 20260502230034 | 24 | 270 | 1.6 | 8.0 | 0.00 | 0.00 | 0.00 | 23 | 1011.5 |
| 20260502224537 | 24 | 0 | 0.0 | 6.4 | 0.00 | 0.00 | 0.00 | 19 | 1011.6 |
| 20260502223037 | 23 | 0 | 1.6 | 12.9 | 0.00 | 0.00 | 0.00 | 19 | 1011.6 |
| 20260502221538 | 23 | 344 | 4.8 | 12.9 | 0.00 | 0.00 | 0.00 | 22 | 1011.7 |
| 20260502220038 | 23 | 288 | 1.6 | 12.9 | 0.00 | 0.00 | 0.00 | 21 | 1012.0 |
| 20260502214537 | 25 | 300 | 1.6 | 8.0 | 0.00 | 0.00 | 0.00 | 20 | 1012.0 |
| 20260502213048 | 25 | 0 | 0.0 | 8.0 | 0.00 | 0.00 | 0.00 | 21 | 1012.3 |
| 20260502211538 | 24 | 199 | 3.2 | 11.3 | 0.00 | 0.00 | 0.00 | 21 | 1012.5 |
| 20260502210039 | 24 | 224 | 3.2 | 11.3 | 0.00 | 0.00 | 0.00 | 20 | 1012.7 |
| 20260502204539 | 25 | 316 | 4.8 | 11.3 | 0.00 | 0.00 | 0.00 | 25 | 1012.8 |
| 20260502203040 | 24 | 11 | 3.2 | 11.3 | 0.00 | 0.00 | 0.00 | 20 | 1013.1 |
| 20260502201536 | 24 | 350 | 4.8 | 11.3 | 0.00 | 0.00 | 0.00 | 23 | 1013.3 |
| 20260502200055 | 24 | 323 | 1.6 | 9.7 | 0.00 | 0.00 | 0.00 | 24 | 1013.6 |
| 20260502194549 | 24 | 0 | 1.6 | 12.9 | 0.00 | 0.00 | 0.00 | 27 | 1013.6 |
| 20260502193037 | 24 | 0 | 0.0 | 6.4 | 0.00 | 0.00 | 0.00 | 19 | 1013.8 |
| 20260502191536 | 23 | 0 | 1.6 | 8.0 | 0.00 | 0.00 | 0.00 | 21 | 1014.0 |
| 20260502190038 | 24 | 0 | 1.6 | 6.4 | 0.00 | 0.00 | 0.00 | 19 | 1014.1 |
| 20260502184536 | 23 | 144 | 0.0 | 4.8 | 0.00 | 0.00 | 0.00 | 25 | 1014.5 |
| 20260502183043 | 23 | 0 | 0.0 | 8.0 | 0.00 | 0.00 | 0.00 | 24 | 1014.6 |
| 20260502181537 | 23 | 274 | 1.6 | 4.8 | 0.00 | 0.00 | 0.00 | 21 | 1014.8 |
| 20260502163038 | 18 | 135 | 0.0 | 6.4 | 0.00 | 0.00 | 0.00 | 33 | 1014.9 |
| 20260502161542 | 18 | 0 | 1.6 | 6.4 | 0.00 | 0.00 | 0.00 | 31 | 1014.8 |
| 20260502151537 | 13 | 0 | 0.0 | 0.0 | 0.00 | 0.00 | 0.00 | 45 | 1014.7 |
| 20260502123038 | 5 | 0 | 0.0 | 1.6 | 0.00 | 0.00 | 0.00 | 59 | 1013.7 |
| 20260502121537 | 5 | 0 | 0.0 | 0.0 | 0.00 | 0.00 | 0.00 | 57 | 1013.6 |
| 20260502114539 | 5 | 0 | 0.0 | 0.0 | 0.00 | 0.00 | 0.00 | 63 | 1013.6 |
| 20260502113043 | 5 | 0 | 0.0 | 1.6 | 0.00 | 0.00 | 0.00 | 60 | 1013.7 |
| 20260502111534 | 5 | 340 | 0.0 | 1.6 | 0.00 | 0.00 | 0.00 | 61 | 1013.7 |
| 20260502110037 | 5 | 0 | 0.0 | 1.6 | 0.00 | 0.00 | 0.00 | 60 | 1013.6 |
| 20260502104536 | 5 | 0 | 0.0 | 0.0 | 0.00 | 0.00 | 0.00 | 59 | 1013.6 |
| 20260502103059 | 4 | 0 | 0.0 | 0.0 | 0.00 | 0.00 | 0.00 | 55 | 1013.6 |
| 20260502101548 | 5 | 0 | 0.0 | 0.0 | 0.00 | 0.00 | 0.00 | 51 | 1013.5 |
| 20260502070037 | 8 | 0 | 0.0 | 0.0 | 0.00 | 0.00 | 0.00 | 48 | 1014.3 |
| 20260502064537 | 8 | 0 | 0.0 | 0.0 | 0.00 | 0.00 | 0.00 | 47 | 1014.2 |
| 20260502063045 | 9 | 0 | 0.0 | 0.0 | 0.00 | 0.00 | 0.00 | 44 | 1014.2 |
| 20260502061539 | 10 | 0 | 0.0 | 0.0 | 0.00 | 0.00 | 0.00 | 44 | 1014.2 |
| 20260502060039 | 10 | 0 | 0.0 | 0.0 | 0.00 | 0.00 | 0.00 | 40 | 1014.2 |
| 20260502054550 | 11 | 0 | 0.0 | 0.0 | 0.00 | 0.00 | 0.00 | 42 | 1014.3 |
| 20260502053046 | 11 | 0 | 0.0 | 0.0 | 0.00 | 0.00 | 0.00 | 37 | 1014.3 |
| 20260502051538 | 11 | 0 | 0.0 | 0.0 | 0.00 | 0.00 | 0.00 | 35 | 1014.3 |